When you browse on this site, cookies collect data to enhance your experience and personalize the content and advertising you see.
Visit our Privacy Policy to learn more. By continuing to use the site, you agree to this use of cookies and data.
  • In United Kingdom
  • List of Countries
  • For 7 days
  • Water Temperature
  • Weather Map
  • Weather Widgets
  • user-avatar
    Login

    Hourly Weather Bandar Seri Begawan

    Today, 20 January, Monday

    Time Temperature Precipitation Wind Pressure Humidity
    00:00 +27°C° 0.1 mm 2 mps 756 mmHg 92%
    01:00 +27°C° 0.1 mm 2 mps 756 mmHg 93%
    02:00 +27°C° 0 mm 2 mps 756 mmHg 93%
    03:00 +27°C° 0.4 mm 2 mps 756 mmHg 93%
    04:00 +26°C° 0.4 mm 2 mps 756 mmHg 93%
    05:00 +26°C° 0.4 mm 1 mps 756 mmHg 93%
    06:00 +27°C° 0.1 mm 2 mps 756 mmHg 91%
    07:00 +27°C° 0.1 mm 2 mps 756 mmHg 89%
    08:00 +28°C° 0 mm 2 mps 757 mmHg 86%
    09:00 +29°C° 0 mm 2 mps 757 mmHg 79%
    10:00 +31°C° 0 mm 2 mps 757 mmHg 73%
    11:00 +33°C° 0 mm 3 mps 757 mmHg 66%
    12:00 +33°C° 0 mm 3 mps 756 mmHg 64%
    13:00 +34°C° 0 mm 3 mps 755 mmHg 63%
    14:00 +34°C° 0 mm 3 mps 755 mmHg 61%
    15:00 +33°C° 0 mm 4 mps 754 mmHg 65%
    16:00 +32°C° 0 mm 4 mps 754 mmHg 69%
    17:00 +32°C° 0 mm 4 mps 754 mmHg 73%
    18:00 +30°C° 0 mm 4 mps 755 mmHg 78%
    19:00 +29°C° 0 mm 3 mps 755 mmHg 84%
    20:00 +28°C° 0 mm 3 mps 756 mmHg 89%
    21:00 +28°C° 0 mm 3 mps 756 mmHg 90%
    22:00 +27°C° 0 mm 3 mps 757 mmHg 92%
    23:00 +27°C° 0 mm 3 mps 757 mmHg 93%

    Tomorrow, 21 January, Tuesday

    Time Temperature Precipitation Wind Pressure Humidity
    00:00 +27°C° 0 mm 2 mps 757 mmHg 93%
    01:00 +27°C° 0 mm 2 mps 757 mmHg 93%
    02:00 +27°C° 0 mm 2 mps 757 mmHg 93%
    03:00 +26°C° 0 mm 2 mps 756 mmHg 94%
    04:00 +26°C° 0 mm 1 mps 756 mmHg 94%
    05:00 +26°C° 0 mm 1 mps 756 mmHg 94%
    06:00 +26°C° 0 mm 1 mps 757 mmHg 90%
    07:00 +27°C° 0 mm 1 mps 757 mmHg 87%
    08:00 +27°C° 0 mm 1 mps 758 mmHg 83%
    09:00 +29°C° 0 mm 1 mps 757 mmHg 76%
    10:00 +31°C° 0 mm 1 mps 757 mmHg 68%
    11:00 +33°C° 0 mm 1 mps 757 mmHg 60%
    12:00 +33°C° 0 mm 1 mps 757 mmHg 60%
    13:00 +34°C° 0 mm 2 mps 756 mmHg 59%
    14:00 +34°C° 0 mm 3 mps 756 mmHg 59%
    15:00 +33°C° 0 mm 3 mps 756 mmHg 64%
    16:00 +31°C° 0 mm 3 mps 755 mmHg 69%
    17:00 +31°C° 0 mm 3 mps 755 mmHg 74%
    18:00 +30°C° 0 mm 3 mps 755 mmHg 79%
    19:00 +29°C° 0 mm 3 mps 756 mmHg 84%
    20:00 +28°C° 0 mm 2 mps 756 mmHg 89%
    21:00 +28°C° 0 mm 2 mps 756 mmHg 90%
    22:00 +28°C° 0 mm 2 mps 757 mmHg 90%
    23:00 +27°C° 0 mm 2 mps 757 mmHg 91%

    Day after tomorrow, 22 January, Wednesday

    Time Temperature Precipitation Wind Pressure Humidity
    00:00 +27°C° 0 mm 2 mps 757 mmHg 90%
    01:00 +27°C° 0 mm 2 mps 756 mmHg 90%
    02:00 +27°C° 0 mm 2 mps 756 mmHg 90%
    03:00 +26°C° 0 mm 2 mps 756 mmHg 90%
    04:00 +26°C° 0 mm 1 mps 756 mmHg 90%
    05:00 +26°C° 0 mm 1 mps 755 mmHg 91%
    06:00 +27°C° 0 mm 1 mps 756 mmHg 88%
    07:00 +27°C° 0 mm 1 mps 757 mmHg 85%
    08:00 +28°C° 0 mm 1 mps 757 mmHg 83%
    09:00 +29°C° 0 mm 1 mps 757 mmHg 76%
    10:00 +31°C° 0 mm 2 mps 757 mmHg 68%
    11:00 +34°C° 0 mm 2 mps 757 mmHg 61%
    12:00 +34°C° 0 mm 3 mps 757 mmHg 62%
    13:00 +34°C° 0 mm 3 mps 756 mmHg 62%
    14:00 +34°C° 0 mm 4 mps 755 mmHg 62%
    15:00 +33°C° 0 mm 4 mps 755 mmHg 65%
    16:00 +32°C° 0 mm 4 mps 754 mmHg 68%
    17:00 +32°C° 0 mm 4 mps 754 mmHg 71%
    18:00 +30°C° 0 mm 4 mps 754 mmHg 75%
    19:00 +29°C° 0 mm 4 mps 755 mmHg 79%
    20:00 +28°C° 0 mm 3 mps 755 mmHg 84%
    21:00 +28°C° 0 mm 3 mps 756 mmHg 84%
    22:00 +27°C° 0 mm 2 mps 756 mmHg 85%
    23:00 +27°C° 0 mm 2 mps 756 mmHg 86%

    23 January, Thursday

    Time Temperature Precipitation Wind Pressure Humidity
    00:00 +27°C° 0 mm 2 mps 756 mmHg 87%
    01:00 +27°C° 0 mm 2 mps 756 mmHg 87%
    02:00 +26°C° 0 mm 2 mps 755 mmHg 88%
    03:00 +26°C° 0 mm 2 mps 755 mmHg 89%
    04:00 +26°C° 0 mm 2 mps 755 mmHg 89%
    05:00 +26°C° 0 mm 2 mps 755 mmHg 89%
    06:00 +26°C° 0 mm 1 mps 755 mmHg 86%
    07:00 +27°C° 0 mm 1 mps 756 mmHg 82%
    08:00 +28°C° 0 mm 1 mps 756 mmHg 79%
    09:00 +29°C° 0 mm 1 mps 756 mmHg 71%
    10:00 +31°C° 0 mm 1 mps 756 mmHg 64%
    11:00 +33°C° 0 mm 1 mps 756 mmHg 57%
    12:00 +34°C° 0 mm 2 mps 755 mmHg 56%
    13:00 +34°C° 0 mm 2 mps 755 mmHg 56%
    14:00 +34°C° 0 mm 3 mps 754 mmHg 56%
    15:00 +33°C° 0 mm 3 mps 753 mmHg 59%
    16:00 +31°C° 0 mm 3 mps 753 mmHg 62%
    17:00 +31°C° 0 mm 3 mps 753 mmHg 65%
    18:00 +30°C° 0 mm 3 mps 753 mmHg 70%
    19:00 +28°C° 0 mm 3 mps 754 mmHg 75%
    20:00 +27°C° 0 mm 2 mps 755 mmHg 80%
    21:00 +27°C° 0 mm 2 mps 755 mmHg 82%
    22:00 +27°C° 0 mm 2 mps 756 mmHg 83%
    23:00 +27°C° 0 mm 1 mps 756 mmHg 85%

    24 January, Friday

    Time Temperature Precipitation Wind Pressure Humidity
    00:00 +26°C° 0 mm 1 mps 756 mmHg 85%
    01:00 +26°C° 0 mm 1 mps 755 mmHg 86%
    02:00 +26°C° 0 mm 1 mps 755 mmHg 86%
    03:00 +26°C° 0 mm 1 mps 755 mmHg 86%
    04:00 +25°C° 0 mm 1 mps 755 mmHg 86%
    05:00 +25°C° 0 mm 1 mps 755 mmHg 85%
    06:00 +26°C° 0 mm 1 mps 755 mmHg 83%
    07:00 +26°C° 0 mm 1 mps 755 mmHg 80%
    08:00 +27°C° 0 mm 1 mps 756 mmHg 77%
    09:00 +29°C° 0 mm 1 mps 756 mmHg 70%
    10:00 +31°C° 0 mm 1 mps 756 mmHg 63%
    11:00 +33°C° 0 mm 1 mps 756 mmHg 55%
    12:00 +33°C° 0 mm 1 mps 755 mmHg 55%
    13:00 +34°C° 0 mm 2 mps 754 mmHg 55%
    14:00 +34°C° 0 mm 3 mps 754 mmHg 55%
    15:00 +33°C° 0 mm 3 mps 753 mmHg 60%
    16:00 +33°C° 0 mm 3 mps 753 mmHg 64%
    17:00 +31°C° 0 mm 3 mps 753 mmHg 69%
    18:00 +30°C° 0 mm 3 mps 753 mmHg 75%
    19:00 +29°C° 0 mm 3 mps 754 mmHg 81%
    20:00 +28°C° 0 mm 3 mps 755 mmHg 88%
    21:00 +28°C° 0 mm 3 mps 755 mmHg 89%
    22:00 +28°C° 0 mm 2 mps 755 mmHg 90%
    23:00 +27°C° 0 mm 2 mps 756 mmHg 91%

    25 January, Saturday

    Time Temperature Precipitation Wind Pressure Humidity
    00:00 +27°C° 0.1 mm 2 mps 755 mmHg 91%
    01:00 +27°C° 0.1 mm 2 mps 755 mmHg 92%
    02:00 +27°C° 0.1 mm 1 mps 755 mmHg 93%
    03:00 +27°C° 0 mm 1 mps 754 mmHg 93%
    04:00 +27°C° 0 mm 1 mps 754 mmHg 93%
    05:00 +26°C° 0 mm 1 mps 754 mmHg 94%
    06:00 +27°C° 0.4 mm 1 mps 755 mmHg 92%
    07:00 +27°C° 0.4 mm 1 mps 755 mmHg 91%
    08:00 +27°C° 0.4 mm 1 mps 756 mmHg 89%
    09:00 +29°C° 0.9 mm 1 mps 756 mmHg 84%
    10:00 +30°C° 0.9 mm 2 mps 756 mmHg 78%
    11:00 +32°C° 0.9 mm 2 mps 756 mmHg 72%
    12:00 +31°C° 1.6 mm 2 mps 756 mmHg 74%
    13:00 +31°C° 1.6 mm 3 mps 755 mmHg 76%
    14:00 +31°C° 1.6 mm 3 mps 754 mmHg 77%
    15:00 +30°C° 1.7 mm 3 mps 754 mmHg 80%
    16:00 +29°C° 1.7 mm 3 mps 754 mmHg 83%
    17:00 +28°C° 1.7 mm 3 mps 754 mmHg 86%
    18:00 +28°C° 1.1 mm 3 mps 754 mmHg 89%
    19:00 +27°C° 1.1 mm 2 mps 755 mmHg 91%
    20:00 +27°C° 1.1 mm 2 mps 755 mmHg 93%
    21:00 +27°C° 0.1 mm 1 mps 756 mmHg 93%
    22:00 +27°C° 0.1 mm 1 mps 756 mmHg 92%
    23:00 +26°C° 0.1 mm 1 mps 756 mmHg 92%
    Show more